Mount Pleasant, MI

2:02 PM EDT on July 27, 2017 (GMT -0400)
Mount Pleasant Municipal

Weather History for KMOP - November, 2012

Change the Weather History Date:

Thursday, November 8, 2012

  Actual Average (KAMN) Record (KAMN)
Temperature  
Mean Temperature 34 °F -  
Max Temperature 45 °F 47 °F 64 °F (1975)
Min Temperature 23 °F 31 °F 11 °F (1991)
Degree Days  
Heating Degree Days 31    
Moisture  
Dew Point 29 °F    
Average Humidity 79    
Maximum Humidity 95    
Minimum Humidity 60    
Precipitation  
Precipitation 0.00 in - - ()
Sea Level Pressure  
Sea Level Pressure 30.15 in    
Wind  
Wind Speed 1 mph (SSW)    
Max Wind Speed 7 mph    
Max Gust Speed -    
Visibility 7 miles    
Events      
Averages and records for this station are not official NWS values.
T = Trace of Precipitation, MM = Missing Value Source: NWS Daily Summary

Daily Weather History Graph

Daily Weather History Graph

Search for Another Location

Airport or City:

Trip Planner

Search our weather history database for the weather conditions in past years. The results will help you decide how hot, cold, wet, or windy it might be!

Date:

Astronomy

Nov. 08, 2012 Rise Set
Actual Time 7:24 AM EST 5:20 PM EST
Civil Twilight 6:54 AM EST 5:50 PM EST
Nautical Twilight 6:19 AM EST 6:25 PM EST
Astronomical Twilight 5:46 AM EST 6:58 PM EST
Moon 1:08 AM EST (11/8) 2:10 PM EST (11/8)
Length of Visible Light 10h 56m
Length of Day
9h 56m
Waning Crescent, 33% of the Moon is Illuminated
Nov 8
Waning Crescent
Nov 13
New
Nov 20
First Quarter
Nov 28
Full
Dec 6
Last Quarter

Hourly Weather History & Observations

Time (EST) Temp. Windchill Dew Point Humidity Pressure Visibility Wind Dir Wind Speed Gust Speed Precip Events Conditions
12:15 AM 26.6 °F - 24.8 °F 93% 30.16 in 7.0 mi Calm Calm - N/A   Clear
12:35 AM 26.6 °F - 24.8 °F 93% 30.16 in 5.0 mi Calm Calm - N/A   Clear
12:55 AM 26.6 °F - 25.2 °F 94% 30.16 in 5.0 mi Calm Calm - N/A   Clear
1:15 AM 26.4 °F - 24.8 °F 94% 30.16 in 0.8 mi Calm Calm - N/A   Mist
1:35 AM 25.7 °F - 24.1 °F 94% 30.16 in 5.0 mi Calm Calm - N/A   Clear
1:55 AM 25.9 °F - 24.4 °F 94% 30.16 in 5.0 mi Calm Calm - N/A   Clear
2:15 AM 25.0 °F - 23.4 °F 94% 30.16 in 5.0 mi Calm Calm - N/A   Clear
2:35 AM 25.2 °F - 23.4 °F 93% 30.16 in 5.0 mi Calm Calm - N/A   Clear
2:55 AM 25.0 °F - 23.5 °F 94% 30.16 in 4.0 mi Calm Calm - N/A   Clear
3:15 AM 24.8 °F - 23.5 °F 95% 30.16 in 3.0 mi Calm Calm - N/A   Clear
3:35 AM 24.6 °F - 23.0 °F 94% 30.16 in 4.0 mi Calm Calm - N/A   Clear
3:54 AM 24.4 °F - 22.8 °F 94% 30.17 in 5.0 mi Calm Calm - N/A   Clear
4:15 AM 24.1 °F - 22.6 °F 94% 30.16 in 5.0 mi Calm Calm - N/A   Clear
4:35 AM 24.6 °F - 23.0 °F 94% 30.17 in 4.0 mi Calm Calm - N/A   Clear
4:55 AM 24.1 °F - 22.5 °F 94% 30.17 in 5.0 mi Calm Calm - N/A   Clear
5:15 AM 23.9 °F - 22.1 °F 93% 30.18 in 5.0 mi Calm Calm - N/A   Clear
5:35 AM 23.2 °F - 21.6 °F 94% 30.18 in 4.0 mi Calm Calm - N/A   Clear
6:15 AM 24.1 °F - 22.5 °F 94% 30.18 in 7.0 mi Calm Calm - N/A   Clear
6:35 AM 23.4 °F - 21.9 °F 94% 30.18 in 4.0 mi Calm Calm - N/A   Scattered Clouds
6:55 AM 23.5 °F - 22.1 °F 94% 30.18 in 4.0 mi Calm Calm - N/A   Mostly Cloudy
7:15 AM 23.4 °F - 21.7 °F 94% 30.18 in 5.0 mi Calm Calm - N/A   Overcast
7:54 AM 27.3 °F - 25.3 °F 92% 30.19 in 5.0 mi Calm Calm - N/A   Overcast
8:15 AM 28.4 °F - 26.2 °F 92% 30.20 in 5.0 mi Calm Calm - N/A   Overcast
8:35 AM 29.3 °F - 27.1 °F 92% 30.20 in 5.0 mi Calm Calm - N/A   Overcast
8:55 AM 30.2 °F - 28.0 °F 92% 30.21 in 5.0 mi Calm Calm - N/A   Overcast
9:15 AM 30.9 °F - 28.4 °F 90% 30.21 in 5.0 mi Calm Calm - N/A   Overcast
9:35 AM 32.0 °F - 29.8 °F 92% 30.21 in 4.0 mi Calm Calm - N/A   Overcast
9:55 AM 32.5 °F - 30.9 °F 94% 30.20 in 4.0 mi Calm Calm - N/A   Overcast
10:15 AM 33.8 °F - 31.8 °F 92% 30.20 in 4.0 mi Calm Calm - N/A   Overcast
10:35 AM 35.6 °F 32.8 °F 32.0 °F 87% 30.20 in 7.0 mi SSE 3.5 mph - N/A   Overcast
10:55 AM 36.9 °F 33.1 °F 32.0 °F 83% 30.19 in 10.0 mi South 4.6 mph - N/A   Overcast
11:35 AM 39.7 °F 37.6 °F 32.4 °F 75% 30.19 in 10.0 mi South 3.5 mph - N/A   Overcast
11:55 AM 40.5 °F 37.3 °F 32.4 °F 73% 30.18 in 10.0 mi SSE 4.6 mph - N/A   Overcast
12:15 PM 41.5 °F 39.6 °F 32.4 °F 70% 30.17 in 10.0 mi South 3.5 mph - N/A   Overcast
12:35 PM 41.9 °F 40.0 °F 32.0 °F 68% 30.16 in 10.0 mi South 3.5 mph - N/A   Overcast
12:55 PM 42.4 °F 40.7 °F 31.8 °F 66% 30.16 in 10.0 mi SSW 3.5 mph - N/A   Overcast
1:15 PM 43.5 °F 40.9 °F 32.0 °F 64% 30.15 in 10.0 mi SSW 4.6 mph - N/A   Overcast
1:35 PM 43.3 °F 41.7 °F 31.8 °F 64% 30.14 in 10.0 mi South 3.5 mph - N/A   Overcast
1:55 PM 43.9 °F 42.3 °F 32.0 °F 63% 30.14 in 10.0 mi SSW 3.5 mph - N/A   Overcast
2:15 PM 44.4 °F 42.0 °F 32.0 °F 62% 30.14 in 10.0 mi SSW 4.6 mph - N/A   Overcast
2:35 PM 44.6 °F - 31.3 °F 60% 30.13 in 10.0 mi Calm Calm - N/A   Overcast
2:55 PM 44.8 °F 42.4 °F 31.8 °F 60% 30.13 in 10.0 mi SSE 4.6 mph - N/A   Overcast
3:14 PM 45.0 °F 43.5 °F 31.8 °F 60% 30.12 in 10.0 mi South 3.5 mph - N/A   Overcast
3:35 PM 44.8 °F 42.4 °F 31.8 °F 60% 30.12 in 10.0 mi SSE 4.6 mph - N/A   Overcast
3:55 PM 45.0 °F 43.5 °F 32.0 °F 60% 30.12 in 10.0 mi SSW 3.5 mph - N/A   Overcast
4:15 PM 45.1 °F - 32.0 °F 60% 30.12 in 10.0 mi Calm Calm - N/A   Overcast
4:35 PM 45.0 °F - 31.8 °F 60% 30.12 in 10.0 mi Calm Calm - N/A   Overcast
4:55 PM 44.8 °F 43.3 °F 32.0 °F 61% 30.12 in 10.0 mi SW 3.5 mph - N/A   Overcast
5:15 PM 44.6 °F - 32.0 °F 61% 30.12 in 10.0 mi Calm Calm - N/A   Overcast
5:35 PM 44.1 °F - 32.0 °F 63% 30.12 in 10.0 mi Calm Calm - N/A   Overcast
5:55 PM 43.7 °F - 32.0 °F 63% 30.11 in 10.0 mi Calm Calm - N/A   Overcast
6:15 PM 43.9 °F - 32.0 °F 63% 30.11 in 10.0 mi Calm Calm - N/A   Overcast
6:35 PM 44.1 °F - 32.2 °F 63% 30.11 in 10.0 mi Calm Calm - N/A   Overcast
6:55 PM 44.1 °F 41.5 °F 32.0 °F 63% 30.11 in 10.0 mi South 4.6 mph - N/A   Overcast
7:15 PM 43.5 °F 40.9 °F 32.2 °F 64% 30.10 in 10.0 mi South 4.6 mph - N/A   Overcast
7:35 PM 43.5 °F 39.4 °F 32.4 °F 65% 30.10 in 10.0 mi SSW 6.9 mph - N/A   Overcast
7:55 PM 43.7 °F 40.3 °F 32.5 °F 65% 30.10 in 10.0 mi SSW 5.8 mph - N/A   Overcast
8:15 PM 43.7 °F 40.3 °F 32.9 °F 66% 30.10 in 10.0 mi SW 5.8 mph - N/A   Overcast
8:35 PM 43.7 °F 41.1 °F 33.1 °F 66% 30.10 in 10.0 mi SW 4.6 mph - N/A   Overcast
8:54 PM 43.7 °F 40.3 °F 33.4 °F 67% 30.10 in 7.0 mi SSW 5.8 mph - N/A   Overcast
9:15 PM 43.2 °F 39.7 °F 33.8 °F 70% 30.10 in 7.0 mi SW 5.8 mph - N/A   Overcast
9:35 PM 41.9 °F 40.0 °F 33.3 °F 71% 30.10 in 7.0 mi SSW 3.5 mph - N/A   Mostly Cloudy
9:54 PM 41.2 °F 38.2 °F 33.8 °F 75% 30.10 in 7.0 mi SSW 4.6 mph - N/A   Clear
10:15 PM 40.5 °F - 34.0 °F 78% 30.09 in 7.0 mi Calm Calm - N/A   Clear
10:35 PM 41.0 °F 39.0 °F 34.7 °F 78% 30.09 in 5.0 mi SSW 3.5 mph - N/A   Haze
10:54 PM 40.6 °F 37.5 °F 35.1 °F 80% 30.09 in 5.0 mi SSW 4.6 mph - N/A   Haze
11:15 PM 41.0 °F 38.0 °F 35.6 °F 81% 30.09 in 5.0 mi SW 4.6 mph - N/A   Haze
11:35 PM 40.1 °F 36.9 °F 34.9 °F 82% 30.09 in 5.0 mi SW 4.6 mph - N/A   Haze
11:54 PM 40.3 °F 38.2 °F 35.1 °F 82% 30.09 in 5.0 mi SSW 3.5 mph - N/A   Haze